Location: *
(41.7492°S, 135.4150°W)
Time: 19:15:41
(UTC+00:00)

Cosmos 1707 Rocket - Pass Details

Date: 20 September 2021
Orbit: 604 x 632 km, 82.5° (Epoch: 16 October)

Event Time Altitude Azimuth Distance (km) Brightness Sun altitude
Rises 13:54:26 0° 192° (SSW) 2,911 7.0 -11.8°
Reaches altitude 10° 13:56:41 10° 195° (SSW) 2,001 6.1 -11.4°
Maximum altitude 14:01:03 60° 274° (W) 717 3.6 -10.6°
Drops below altitude 10° 14:05:23 10° 354° (N) 1,987 6.0 -9.8°
Sets 14:07:37 0° 357° (N) 2,888 6.9 -9.4°
